FW7023 Weather Reports


time (UTC)temp
F
wind
direction
speed
knots
gust
knots
rain 1hr
in
rain 24hr
in
rain mn
in
humidity
%
barometer
mb
20260505084127 48 96 2.6 4.3 0.12 0.75 0.75 88 1004.7
20260505083625 49 52 2.6 2.6 0.31 0.75 0.75 88 1005.1
20260505083121 49 71 0.0 0.9 0.31 0.72 0.72 88 1007.2
20260505082617 50 131 0.0 0.0 0.31 0.70 0.70 88 1008.0
20260505082114 50 132 0.0 0.9 0.24 0.67 0.67 88 1008.5
20260505081610 50 151 0.0 0.0 0.24 0.65 0.65 88 1008.7
20260505081108 50 145 0.0 0.0 0.24 0.63 0.63 88 1008.9
20260505080603 51 144 0.0 0.0 0.28 0.61 0.61 87 1009.1
20260505080100 51 145 0.0 0.0 0.26 0.58 0.58 84 1008.9
20260505075556 52 136 0.0 0.0 0.26 0.56 0.56 80 1009.2
20260505075053 53 155 0.0 0.0 0.24 0.54 0.54 75 1009.4
20260505074550 54 147 0.0 0.9 0.17 0.52 0.52 72 1009.1
20260505074047 55 105 0.9 1.7 0.12 0.50 0.50 66 1008.6
20260505073544 56 155 0.0 0.9 0.07 0.49 0.49 62 1008.4
20260505073043 56 2 0.9 2.6 0.00 0.48 0.48 61 1008.0
20260505072538 57 136 0.0 0.0 0.00 0.48 0.48 58 1007.4
20260505072035 57 128 0.0 0.0 0.00 0.48 0.48 55 1007.0
20260505071530 57 167 1.7 4.3 0.00 0.48 0.48 55 1006.7
20260505071029 57 58 2.6 2.6 0.00 0.48 0.48 57 1006.8
20260505070526 57 102 0.9 0.9 0.00 0.48 0.48 55 1007.1
20260505070022 57 116 0.9 0.9 0.00 0.48 0.48 57 1007.1
20260505065518 56 154 0.0 0.9 0.00 0.48 0.48 65 1006.5
20260505065014 56 155 0.0 0.9 0.00 0.48 0.48 65 1006.3
20260505064511 56 141 0.0 0.0 0.00 0.48 0.48 68 1006.0
20260505064010 56 89 1.7 1.7 0.00 0.48 0.48 65 1005.9
20260505063507 56 75 1.7 1.7 0.00 0.48 0.48 68 1006.2
20260505063002 56 106 1.7 1.7 0.00 0.48 0.48 71 1005.6
20260505062459 56 87 0.0 0.9 0.00 0.48 0.48 73 1005.7
20260505061956 56 124 0.9 1.7 0.05 0.48 0.48 81 1005.4
20260505061454 56 158 0.0 0.0 0.05 0.48 0.48 89 1005.1
20260505060951 56 151 0.0 0.0 0.00 0.47 0.47 89 1005.1
20260505060449 57 165 0.0 0.0 0.00 0.47 0.47 89 1005.2
20260505055945 57 162 0.0 0.0 0.00 0.47 0.47 88 1004.9
20260505055441 57 157 0.0 0.0 0.00 0.47 0.47 88 1004.7
20260505054938 57 159 0.9 0.9 0.19 0.47 0.47 89 1004.6
20260505054435 57 145 0.0 0.0 0.66 0.47 0.47 89 1004.8
20260505053933 58 140 0.0 0.9 1.09 0.43 0.43 88 1004.8
20260505053430 58 120 0.0 0.0 0.90 0.36 0.36 87 1004.7
20260505052927 60 143 0.0 0.0 1.02 0.27 0.27 83 1005.5
20260505052423 62 168 0.9 0.9 1.21 0.20 0.20 77 1004.8
20260505051921 67 118 0.9 0.9 0.38 0.06 0.06 63 1004.5
20260505051418 69 95 1.7 1.7 0.00 0.00 0.00 51 1004.3
20260505050916 69 95 0.0 0.9 0.00 0.00 0.00 48 1003.8
20260505050414 71 124 0.9 0.9 0.00 0.00 0.00 46 1003.5
20260505041341 72 140 0.9 0.9 0.00 0.00 0.00 67 1002.6
20260505040838 72 179 2.6 4.3 0.00 0.00 0.00 67 1002.3
20260505040336 72 177 0.9 0.9 0.00 0.00 0.00 67 1002.7
20260505035833 72 248 0.9 1.7 0.00 0.00 0.00 66 1002.6
20260505035328 72 203 1.7 2.6 0.00 0.00 0.00 66 1002.7
20260505034826 73 163 0.0 0.0 0.00 0.00 0.00 66 1002.6
20260505034322 73 169 0.9 0.9 0.00 0.00 0.00 65 1002.7
20260505033820 73 150 0.0 0.0 0.00 0.00 0.00 64 1002.5
20260505033316 73 162 0.0 0.9 0.00 0.00 0.00 64 1002.9
20260505032815 73 204 2.6 2.6 0.00 0.00 0.00 63 1002.6
20260505032310 73 186 2.6 2.6 0.00 0.00 0.00 63 1002.6
20260505031808 73 176 1.7 1.7 0.00 0.00 0.00 64 1002.6
20260505031304 73 168 0.0 0.0 0.00 0.00 0.00 64 1002.6
20260505030802 73 178 0.9 0.9 0.00 0.00 0.00 64 1002.6
20260505030258 73 168 0.0 0.9 0.00 0.00 0.00 63 1002.6
20260505025753 73 171 0.0 0.9 0.00 0.00 0.00 62 1002.4
20260505025251 73 182 1.7 1.7 0.00 0.00 0.00 63 1002.6
20260505024749 71 183 0.9 0.9 0.00 0.00 0.00 66 1002.3
20260505024246 69 186 0.0 0.0 0.00 0.00 0.00 71 1002.4
20260505023743 69 186 0.0 0.0 0.00 0.00 0.00 72 1002.3
20260505023240 69 186 0.0 0.0 0.00 0.00 0.00 72 1002.0
20260505022738 69 186 0.0 0.0 0.00 0.00 0.00 71 1002.1
20260505022235 69 186 0.0 0.0 0.00 0.00 0.00 71 1001.8
20260505021731 70 186 0.0 0.0 0.00 0.00 0.00 70 1001.9
20260505021228 70 186 0.0 0.0 0.00 0.00 0.00 69 1001.9
20260505020724 71 185 0.0 0.0 0.00 0.00 0.00 68 1001.8
20260505020219 70 186 0.9 0.9 0.00 0.00 0.00 68 1001.7
20260505015717 70 186 0.0 0.9 0.00 0.00 0.00 68 1001.7
20260505015214 70 186 0.0 0.0 0.00 0.00 0.00 68 1001.5
20260505014711 71 185 0.0 0.0 0.00 0.00 0.00 67 1001.3
20260505014208 71 186 0.9 0.9 0.00 0.00 0.00 67 1001.3
20260505013705 71 185 0.0 0.0 0.00 0.00 0.00 66 1001.1
20260505013202 72 185 0.0 0.0 0.00 0.00 0.00 65 1001.2
20260505012700 72 186 0.0 0.0 0.00 0.00 0.00 64 1001.1
20260505012157 73 185 0.9 1.7 0.00 0.00 0.00 63 1001.0
20260505011653 73 184 0.0 0.0 0.00 0.00 0.00 62 1001.1
20260505011150 74 169 0.0 0.9 0.00 0.00 0.00 61 1000.9
20260505010645 74 174 0.9 0.9 0.00 0.00 0.00 61 1001.0
20260505010143 75 173 0.9 0.9 0.00 0.00 0.00 60 1000.8
20260505005638 75 176 0.9 0.9 0.00 0.00 0.00 59 1000.8
20260505005135 77 182 0.9 0.9 0.00 0.00 0.00 58 1000.7
20260505004632 77 171 0.0 0.0 0.00 0.00 0.00 56 1000.5
20260505004129 78 178 0.9 0.9 0.00 0.00 0.00 54 1000.6
20260505003626 79 167 0.0 0.9 0.00 0.00 0.00 50 1000.4
20260505003124 79 166 0.0 0.0 0.00 0.00 0.00 49 1000.4
20260505002620 79 182 0.9 0.9 0.00 0.00 0.00 48 1000.5
20260505002118 80 211 1.7 1.7 0.00 0.00 0.00 48 1000.6
20260505001615 80 204 0.9 1.7 0.00 0.00 0.00 47 1000.4
20260505001113 80 206 1.7 1.7 0.00 0.00 0.00 47 1000.5
20260505000609 80 152 0.0 0.0 0.00 0.00 0.00 46 1000.7
20260505000108 80 215 0.9 0.9 0.00 0.00 0.00 46 1000.6
20260504235604 81 214 0.0 0.9 0.00 0.00 0.00 45 1000.5
20260504235100 81 202 1.7 1.7 0.00 0.00 0.00 44 1000.4
20260504234557 81 176 0.0 0.9 0.00 0.00 0.00 45 1000.2
20260504234054 81 179 0.9 1.7 0.00 0.00 0.00 44 1000.5
20260504233549 82 224 2.6 2.6 0.00 0.00 0.00 44 1000.6
20260504233046 83 209 6.1 7.0 0.00 0.00 0.00 42 1000.5
20260504232543 84 215 0.9 0.9 0.00 0.00 0.00 41 1000.5
20260504232041 83 168 0.9 0.9 0.00 0.00 0.00 42 1000.4
20260504231538 83 186 1.7 2.6 0.00 0.00 0.00 42 1000.6
20260504231034 83 115 0.0 0.9 0.00 0.00 0.00 42 1000.6
20260504230530 84 195 1.7 1.7 0.00 0.00 0.00 40 1000.7
20260504230029 84 196 0.9 0.9 0.00 0.00 0.00 40 1000.6
20260504225526 83 175 0.9 0.9 0.00 0.00 0.00 41 1000.7
20260504225023 83 185 0.9 0.9 0.00 0.00 0.00 40 1000.6
20260504224519 82 263 1.7 2.6 0.00 0.00 0.00 41 1000.8
20260504224017 81 269 0.0 0.9 0.00 0.00 0.00 42 1000.7
20260504223513 81 208 2.6 2.6 0.00 0.00 0.00 41 1000.8
20260504223009 82 200 2.6 2.6 0.00 0.00 0.00 41 1000.8
20260504222506 82 215 2.6 2.6 0.00 0.00 0.00 42 1000.9
20260504222004 82 168 0.0 0.9 0.00 0.00 0.00 41 1000.7
20260504221501 81 144 1.7 2.6 0.00 0.00 0.00 40 1000.6
20260504220957 82 193 1.7 2.6 0.00 0.00 0.00 41 1000.8
20260504220454 82 177 0.9 1.7 0.00 0.00 0.00 40 1000.9
20260504215951 82 43 1.7 2.6 0.00 0.00 0.00 41 1001.0
20260504215447 82 193 0.9 1.7 0.00 0.00 0.00 40 1000.9
20260504214944 83 176 2.6 4.3 0.00 0.00 0.00 40 1000.8
20260504214441 84 107 0.9 1.7 0.00 0.00 0.00 38 1000.9
20260504213937 83 173 0.9 1.7 0.00 0.00 0.00 39 1001.1
20260504213433 84 204 4.3 5.2 0.00 0.00 0.00 37 1001.0
20260504212931 84 190 2.6 2.6 0.00 0.00 0.00 38 1001.0
20260504212426 84 224 2.6 4.3 0.00 0.00 0.00 37 1001.0
20260504211925 84 329 3.5 5.2 0.00 0.00 0.00 37 1000.9
20260504211420 84 214 4.3 5.2 0.00 0.00 0.00 38 1000.9
20260504210918 85 166 0.9 0.9 0.00 0.00 0.00 38 1000.9
20260504210415 85 234 5.2 7.0 0.00 0.00 0.00 36 1000.9
20260504205912 85 119 0.9 0.9 0.00 0.00 0.00 37 1001.2
20260504205410 84 296 1.7 2.6 0.00 0.00 0.00 37 1001.1
20260504204908 84 187 3.5 6.1 0.00 0.00 0.00 37 1001.0
20260504204406 84 147 0.0 0.9 0.00 0.00 0.00 39 1001.3
20260504203905 85 194 2.6 4.3 0.00 0.00 0.00 38 1001.0
20260504203402 84 194 2.6 4.3 0.00 0.00 0.00 40 1001.2
20260504202857 85 210 2.6 5.2 0.00 0.00 0.00 38 1001.2
20260504202354 84 219 1.7 2.6 0.00 0.00 0.00 37 1001.3
20260504201851 83 54 0.9 1.7 0.00 0.00 0.00 39 1001.1
20260504201348 84 203 4.3 4.3 0.00 0.00 0.00 39 1001.5
20260504200846 84 165 0.0 0.9 0.00 0.00 0.00 39 1001.3
20260504200342 83 32 1.7 2.6 0.00 0.00 0.00 40 1001.6
20260504195839 83 214 6.1 7.8 0.00 0.00 0.00 39 1001.3
20260504195334 84 213 5.2 7.0 0.00 0.00 0.00 38 1001.5
20260504194832 83 167 1.7 1.7 0.00 0.00 0.00 39 1001.8
20260504194328 84 313 1.7 1.7 0.00 0.00 0.00 39 1001.5
20260504193824 84 188 0.9 0.9 0.00 0.00 0.00 39 1001.7
20260504193321 83 15 1.7 1.7 0.00 0.00 0.00 39 1001.6
20260504192820 82 225 6.1 7.0 0.00 0.00 0.00 39 1001.6
20260504192317 82 211 0.9 2.6 0.00 0.00 0.00 41 1001.6
20260504191815 83 216 8.7 9.6 0.00 0.00 0.00 38 1001.7
20260504191313 83 200 5.2 6.1 0.00 0.00 0.00 39 1001.8
20260504190808 82 253 2.6 5.2 0.00 0.00 0.00 41 1001.9
20260504190304 81 147 4.3 5.2 0.00 0.00 0.00 41 1001.9
20260504185801 81 223 4.3 6.1 0.00 0.00 0.00 40 1001.7
20260504185258 83 193 5.2 6.1 0.00 0.00 0.00 38 1002.0
20260504184754 81 104 0.0 0.9 0.00 0.00 0.00 41 1001.8
20260504184250 80 232 6.1 7.8 0.00 0.00 0.00 40 1001.8
20260504183746 80 224 2.6 5.2 0.00 0.00 0.00 40 1001.7
20260504183243 81 205 2.6 4.3 0.00 0.00 0.00 40 1001.7
20260504182741 81 203 0.0 0.9 0.00 0.00 0.00 41 1001.9
20260504182238 80 107 3.5 4.3 0.00 0.00 0.00 41 1001.9
20260504181736 80 48 2.6 5.2 0.00 0.00 0.00 41 1002.2
20260504181233 80 188 2.6 2.6 0.00 0.00 0.00 42 1002.1
20260504180732 80 206 7.8 8.7 0.00 0.00 0.00 42 1002.0
20260504180231 80 222 1.7 6.1 0.00 0.00 0.00 41 1002.0
20260504175728 80 182 2.6 2.6 0.00 0.00 0.00 42 1002.2
20260504175224 80 180 0.0 0.0 0.00 0.00 0.00 45 1002.2
20260504174722 80 222 0.9 1.7 0.00 0.00 0.00 43 1002.3
20260504174220 80 312 1.7 4.3 0.00 0.00 0.00 42 1002.2
20260504173716 80 174 2.6 4.3 0.00 0.00 0.00 41 1002.5
20260504173213 80 236 1.7 4.3 0.00 0.00 0.00 41 1002.5
20260504172710 79 117 0.0 0.9 0.00 0.00 0.00 43 1002.4
20260504172206 79 227 4.3 6.1 0.00 0.00 0.00 42 1002.3
20260504171703 79 175 0.9 0.9 0.00 0.00 0.00 43 1002.4
20260504171200 79 211 5.2 7.0 0.00 0.00 0.00 41 1002.6
20260504170656 80 203 4.3 6.1 0.00 0.00 0.00 39 1002.5
20260504170154 79 61 2.6 4.3 0.00 0.00 0.00 43 1002.6
20260504160112 75 190 2.6 4.3 0.00 0.00 0.00 46 1002.9
20260504151039 72 350 2.6 4.3 0.00 0.00 0.00 48 1002.7
20260504150537 72 59 2.6 5.2 0.00 0.00 0.00 48 1003.1
20260504141003 67 180 1.7 2.6 0.00 0.00 0.00 55 1003.3
20260504140459 67 179 0.0 0.0 0.00 0.00 0.00 55 1003.3
20260504130424 65 198 2.6 2.6 0.00 0.00 0.00 59 1003.5
20260504110310 55 165 0.0 0.0 0.00 0.00 0.00 88 1003.4
20260504100228 55 148 0.0 0.0 0.00 0.00 0.00 86 1004.1